Regional Weather Roundup
Issued by NWS

Home | Current Version | Previous Version | Graphics & Text | Print | Product List | Glossary On
Versions: 1 2 3 4 5 6 7 8 9 10 11 12 13 14 15 16 17 18 19 20 21 22 23 24 25 26 27 28 29 30 31 32 33 34 35 36 37 38 39 40 41 42 43 44 45 46 47 48 49 50
000
ASUS43 KDMX 040807
RWRIA

WEATHER ROUNDUP FOR IOWA
NATIONAL WEATHER SERVICE DES MOINES IA
300 AM CDT MON MAY 04 2015

NOTE: "FAIR" INDICATES FEW OR NO CLOUDS BELOW 12,000 FEET WITH NO
SIGNIFICANT WEATHER AND/OR OBSTRUCTIONS TO VISIBILITY.

* - THESE STATIONS ARE NOT NWS STATIONS...THUS NOT UNDER NWS
QUALITY CONTROL.  THEY ALSO DO NOT REPORT WEATHER SUCH
AS PRECIPITATION OR FOG.

IAZ001>003-012>014-020>022-031>034-043>046-040900-
   NORTHWEST IOWA

CITY           SKY/WX    TMP DP  RH WIND       PRES   REMARKS
CARROLL *      CLOUDY    59  54  82 N12       29.94S
CHEROKEE *     MOCLDY    59  39  47 N13       29.96F
DENISON *      CLOUDY    61  52  72 NE10      29.94R
LE MARS *      MOCLDY    55  34  44 N12       29.99S
ORANGE CITY *  CLEAR     54  30  40 N10       30.00S
SHELDON *      CLEAR     54  32  43 N13       30.01R
SIOUX CITY     CLOUDY    62  37  39 N15       29.98R
SPENCER        PTCLDY    54  39  57 N12       29.99R
STORM LAKE *   PTCLDY    57  46  67 N17G23    29.96F
$$

IAZ055>058-069>071-079>083-090>094-040900-
   SOUTHWEST IOWA

CITY           SKY/WX    TMP DP  RH WIND       PRES   REMARKS
ATLANTIC *     CLEAR     63  59  88 N10       29.92R
AUDUBON *      CLEAR     61  55  82 N9        29.94R
CLARINDA *     MOCLDY    66  61  82 S18G25    29.88F
COUNCIL BLFS * CLEAR     63  61  94 N9        29.95R
CRESTON *      CLOUDY    68  55  64 NW6       29.91R
HARLAN  *      PTCLDY    61  59  94 N10       29.97R
LAMONI         CLOUDY    66  57  72 SW12      29.91R
RED OAK *      CLOUDY    64  59  82 NW8       29.92R
SHENANDOAH *   DRIZZLE   64  57  77 CALM      29.92R
$$

IAZ047>049-059>061-072>074-084-040900-
   CENTRAL IOWA

CITY           SKY/WX    TMP DP  RH WIND       PRES   REMARKS
AMES           CLOUDY    64  54  69 E5        29.91R
ANKENY *       PTCLDY    63  55  77 N13G18    29.90S
CHARITON *     CLOUDY    66  57  72 W7        29.89R
DES MOINES     CLOUDY    67  56  67 N10       29.88R
GRINNELL*      CLOUDY    59  55  88 E8        29.92R
KNOXVILLE *    CLOUDY    66  59  77 NE5       29.88R
MARSHALLTOWN   CLOUDY    60  56  86 E14       29.91F
PELLA *        CLOUDY    64  59  82 SE7       29.91R
PERRY *          N/A     63  55  77 N8        29.91F
$$

IAZ004>006-015-016-023>025-035-036-040900-
   NORTH CENTRAL IOWA

CITY           SKY/WX    TMP DP  RH WIND       PRES   REMARKS
ALGONA *       CLOUDY    57  48  72 NW6       29.98R
CLARION *      CLOUDY    57  57 100 N13       29.94R
ESTHERVILLE    PTCLDY    53  35  50 N13       29.98R
FORT DODGE *   CLOUDY    57  52  82 N12G22    29.92F
MASON CITY     CLOUDY    55  53  93 N10       29.94S
FOREST CITY *  CLEAR     54  50  87 N12       29.95S
IOWA FALLS *   CLOUDY    61  57  88 SE8       29.93R
$$

IAZ007>011-017>019-026>030-037>042-050>054-066-040900-
   NORTHEAST IOWA

CITY           SKY/WX    TMP DP  RH WIND       PRES   REMARKS
CEDAR RAPIDS   RAIN     N/A N/A N/A MISG        N/A
CHARLES CITY * CLEAR     57  57 100 N8        29.92R
CLINTON *      CLOUDY    59  55  88 SE13      29.96F
DECORAH *      FOG       57  57 100 CALM      29.91R VSB 1/2
DUBUQUE        CLOUDY    56  54  93 S6        29.92R
MONTICELLO *   CLOUDY    59  59 100 S8G23     29.92S
OELWEIN *      LGT RAIN  59  59 100 SW6       29.93S
WATERLOO       LGT RAIN  60  58  92 S9        29.93F
$$

IAZ064-065-067-068-078-040900-
   EAST CENTRAL IOWA

CITY           SKY/WX    TMP DP  RH WIND       PRES   REMARKS
DAVENPORT      LGT RAIN  60  56  86 SE9       29.96F
IOWA CITY      LGT RAIN  60  58  92 SE9       29.92F
MT. PLEASANT * CLOUDY    63  55  77 E12       29.95R
MUSCATINE *    DRIZZLE   61  57  88 E10       29.93F
QUAD CITIES    TSTM      61  57  87 E6        29.97S
$$

IAZ062-063-075>077-085>089-095>099-040900-
   SOUTHEAST IOWA

CITY           SKY/WX    TMP DP  RH WIND       PRES   REMARKS
BURLINGTON     CLOUDY    66  55  67 NE18      29.95R
FAIRFIELD *    CLOUDY    64  54  68 E14       29.93R
FORT MADISON * MOCLDY    66  57  72 N8        29.95R
KEOKUK *       PTCLDY    68  57  68 S12       29.90S
OSKALOOSA *    MOCLDY    63  55  77 E10       29.92S
CENTERVILLE *  CLEAR     68  61  77 SW14      29.91R
OTTUMWA        LGT RAIN  65  58  78 E12       29.91R
WASHINGTON *   CLOUDY    61  61 100 SE13      29.92F
$$

ABBREVIATIONS USED IN REMARKS
   TC - TEMPERATURES IN CELSIUS
  WCI - WIND CHILL INDEX
   HX - HEAT INDEX
  VSB - VISIBILITY
$$



USA.gov is the U.S. government's official web portal to all federal, state and local government web resources and services.